Reflectivity
-20 -20 -18 -20 -7 -17 -20 -20 -20 6 9 -4 -17 1 7 27 4 2 -3 5 2 -4
-20 -20 -20 -4 6 -15 -20 18 10 10 9 2 8 2 21 1 10 -7 6 0 -20 -20
-4 19 -18 -8 10 12 14 -2 1 3 7 11 3 13 -11 -20 -20 -20 -20 -20 -18 -20
27 17 1 12 13 -2 -2 4 1 9 4 -19 -13 -20 -20 -20 -20 -20 -20 -20 -20 -20
13 -7 -20 5 9 6 14 8 10 6 -5 -17 -1 -20 -20 -20 -20 -20 -20 -20 -20 -20
-16 -14 -1 1 6 3 3 -3 3 4 -1 2 -1 -20 -20 -20 -20 -20 -20 -20 -20 -20
-4 15 18 12 3 -16 -8 -5 -2 -2 -3 -3 -20 -20 -20 -20 -20 -20 -20 -20 -20 -20
-19 -17 -8 -19 -16 1 1 -15 -10 -4 -11 -20 -20 -20 -20 -20 -20 -20 -20 -20 -20 -20
1 1 -20 -20 1 -20 -3 1 -20 -3 -20 -20 -20 -20 -20 -20 -20 -20 -20 -20 -20 -20
-4 0 0 -4 -20 -16 -8 -11 -5 -20 -20 -20 -20 -20 -20 -20 -20 -20 -20 -20 -20 -20
-5 -4 -15 -20 -20 -20 -20 -20 -20 -20 -20 -20 -20 -20 -20 -20 -20 -20 -20 -20 -20 -20
-5 -17 -20 -20 -20 -20 -20 -20 -20 -20 -20 -20 -20 -20 -20 -20 -20 -20 -20 -20 -20 -20
-19 -20 -20 -20 -20 -20 -20 -20 -20 -20 -20 -20 -20 -20 -20 -20 -20 -20 -20 -20 -20 -20
-20 -20 -20 -20 -20 -20 -20 -20 -20 -20 -20 -20 -20 -20 -20 -20 -20 -20 -20 -20 -20 -20
Wind_Speed
7 6 4 3 1 2 2 3 5 5 5 5 5 6 4 2 2 4 4 7 6 4
8 6 4 3 1 2 2 5 6 6 6 4 4 3 2 4 3 3 4 3 4 5
8 5 4 3 1 4 4 4 3 3 1 3 5 4 1 3 5 5 5 5 6 6
9 10 7 5 3 1 1 1 2 3 5 5 6 6 5 6 6 7 6 7 7 8
10 8 7 5 4 5 4 5 5 6 6 6 6 5 5 6 7 7 7 7 7 8
10 10 7 8 7 6 6 6 6 7 7 7 7 7 7 8 8 8 9 9 9 9
14 12 11 10 9 8 8 8 8 8 8 8 7 7 8 8 8 8 8 8 9 9
12 12 12 11 10 9 9 9 9 9 8 8 7 6 8 7 8 7 7 8 9 10
13 13 13 11 12 10 10 10 10 9 8 6 6 8 8 4 7 7 7 7 8 8
14 14 14 13 11 12 12 12 11 10 9 9 10 6 4 3 8 8 7 7 6 7
14 14 13 13 13 13 12 12 11 10 10 10 9 9 7 6 9 9 9 8 8 7
16 16 15 14 14 13 13 12 11 11 11 11 10 9 8 6 9 9 9 7 5 7
15 16 15 15 15 13 13 12 10 11 10 11 11 8 6 6 7 8 7 7 8 12
14 15 15 15 13 13 13 12 12 11 10 11 11 10 5 6 5 6 5 7 7 7
Wind_Direction
173 151 159 171 149 304 318 283 291 318 289 287 271 290 296 302 334 33 12 24 18 343
174 164 201 159 184 268 290 285 285 283 286 300 294 16 76 41 53 25 10 32 30 329
181 185 195 151 320 307 282 269 297 302 333 66 72 85 86 102 55 39 27 42 26 354
179 202 208 223 276 244 121 192 169 137 105 93 84 75 71 74 67 63 62 61 58 53
187 208 197 184 165 158 175 175 126 113 100 97 100 101 86 73 80 79 73 67 57 44
180 186 159 157 170 149 146 134 129 125 123 120 114 112 107 99 95 90 81 73 65 58
174 156 163 160 137 154 155 142 132 126 126 125 127 120 113 113 108 103 91 79 68 61
161 154 143 145 152 150 149 132 130 133 126 128 137 118 122 115 113 108 90 81 83 67
156 148 149 149 152 142 133 136 139 137 132 122 90 68 24 112 114 108 102 100 104 115
154 151 152 134 146 139 145 143 143 132 132 121 115 109 93 323 110 106 102 109 121 111
152 146 141 150 147 148 146 143 142 142 139 135 125 138 129 123 117 108 97 93 88 87
156 154 155 152 152 153 148 150 149 147 145 139 137 150 174 195 134 116 112 104 87 98
161 158 157 156 158 154 155 154 147 144 145 134 140 168 205 218 132 142 128 129 109 51
161 159 156 155 155 159 164 150 148 145 142 139 148 160 219 289 151 141 146 131 129 105